Krasnodar, Russia

12:22 PM MSK on February 11, 2016 (GMT +0300)
Pashkovsky

Weather History for URKK - January, 2013

Change the Weather History Date:

Thursday, January 3, 2013

  Actual Average Record
Temperature  
Mean Temperature 36 °F -  
Max Temperature 48 °F - - ()
Min Temperature 23 °F - - ()
Degree Days  
Heating Degree Days 30    
Moisture  
Dew Point 29 °F    
Average Humidity 87    
Maximum Humidity 100    
Minimum Humidity 54    
Precipitation  
Precipitation 0.00 in 0.08 in - ()
Sea Level Pressure  
Sea Level Pressure 30.32 in    
Wind  
Wind Speed 3 mph ()    
Max Wind Speed 9 mph    
Max Gust Speed -    
Visibility 2.6 miles    
Events Fog    
T = Trace of Precipitation, MM = Missing Value Source: Averaged Metar Reports

Daily Weather History Graph

Daily Weather History Graph

Search for Another Location

Airport or City:

Trip Planner

Search our weather history database for the weather conditions in past years. The results will help you decide how hot, cold, wet, or windy it might be!

Date:

Astronomy

Jan. 03, 2013 Rise Set
Actual Time 9:01 AM MSK 5:54 PM MSK
Civil Twilight 8:28 AM MSK 6:27 PM MSK
Nautical Twilight 7:51 AM MSK 7:04 PM MSK
Astronomical Twilight 7:15 AM MSK 7:40 PM MSK
Moon No Moon Rise 11:46 AM MSK (1/3)
Length of Visible Light 9h 59m
Length of Day
8h 52m
Waning Gibbous, 69% of the Moon is Illuminated
Jan 3
Waning Gibbous
Jan 5
Last Quarter
Jan 11
New
Jan 19
First Quarter
Jan 27
Full

Hourly Weather History & Observations

Time (MSK) Temp. Windchill Dew Point Humidity Pressure Visibility Wind Dir Wind Speed Gust Speed Precip Events Conditions
12:00 AM 30.2 °F - 28.4 °F 93% 30.36 in 3.7 mi SW 2.2 mph - N/A   Clear
12:30 AM 30.2 °F - 28.4 °F 93% 30.36 in 2.5 mi West 2.2 mph - N/A   Clear
1:00 AM 28.4 °F - 26.6 °F 93% 30.36 in 1.8 mi Calm Calm - N/A   Clear
1:30 AM 28.4 °F - 26.6 °F 93% 30.36 in - Calm Calm - N/A   Clear
2:00 AM 26.6 °F - 26.6 °F 100% 30.36 in 0.3 mi Calm Calm - N/A Fog Light Freezing Fog
2:30 AM 26.6 °F 21.3 °F 26.6 °F 100% 30.36 in 1.4 mi South 4.5 mph - N/A   Clear
3:00 AM 26.6 °F - 26.6 °F 100% 30.36 in - South 2.2 mph - N/A   Clear
3:30 AM 24.8 °F 19.2 °F 24.8 °F 100% 30.36 in - SSE 4.5 mph - N/A   Clear
4:00 AM 26.6 °F 21.3 °F 24.8 °F 93% 30.36 in - South 4.5 mph - N/A   Clear
4:30 AM 26.6 °F - 26.6 °F 100% 30.36 in - Variable 2.2 mph - N/A   Clear
5:00 AM 24.8 °F - 24.8 °F 100% 30.36 in - South 2.2 mph - N/A   Clear
5:30 AM 23.0 °F 17.1 °F 23.0 °F 100% 30.36 in - SSE 4.5 mph - N/A   Clear
6:00 AM 24.8 °F 19.2 °F 23.0 °F 93% 30.36 in - South 4.5 mph - N/A   Clear
6:30 AM 24.8 °F 19.2 °F 23.0 °F 93% 30.33 in 3.7 mi SE 4.5 mph - N/A   Clear
7:00 AM 23.0 °F 17.1 °F 23.0 °F 100% 30.33 in 3.7 mi SSE 4.5 mph - N/A   Clear
7:30 AM 24.8 °F 19.2 °F 23.0 °F 93% 30.36 in - South 4.5 mph - N/A   Clear
8:00 AM 23.0 °F 17.1 °F 23.0 °F 100% 30.36 in - South 4.5 mph - N/A   Clear
8:30 AM 24.8 °F - 23.0 °F 93% 30.36 in - Variable 2.2 mph - N/A   Clear
9:00 AM 23.0 °F 17.1 °F 23.0 °F 100% 30.36 in - SSE 4.5 mph - N/A   Clear
9:30 AM 24.8 °F 19.2 °F 23.0 °F 93% 30.36 in - SSE 4.5 mph - N/A   Clear
10:00 AM 28.4 °F - 26.6 °F 93% 30.36 in - SE 2.2 mph - N/A   Clear
10:30 AM 30.2 °F - 26.6 °F 86% 30.36 in - Variable 2.2 mph - N/A   Clear
11:00 AM 30.2 °F - 26.6 °F 86% 30.36 in - Variable 2.2 mph - N/A   Clear
11:30 AM 32.0 °F 27.6 °F 26.6 °F 80% 30.36 in - South 4.5 mph - N/A   Clear
12:00 PM 33.8 °F - 26.6 °F 75% 30.36 in - Calm Calm - N/A   Clear
12:30 PM 37.4 °F - 30.2 °F 75% 30.33 in - Variable 2.2 mph - N/A   Clear
1:00 PM 39.2 °F - 30.2 °F 70% 30.33 in - Variable 2.2 mph - N/A   Clear
1:30 PM 39.2 °F - 32.0 °F 75% 30.33 in - Variable 2.2 mph - N/A   Clear
2:00 PM 44.6 °F - 35.6 °F 71% 30.30 in - WSW 2.2 mph - N/A   Clear
2:30 PM 48.2 °F - 35.6 °F 62% 30.30 in - Variable 2.2 mph - N/A   Clear
3:00 PM 48.2 °F - 33.8 °F 58% 30.30 in - NW 6.7 mph - N/A   Clear
3:30 PM 48.2 °F - 33.8 °F 58% 30.27 in - NW 8.9 mph - N/A   Clear
4:00 PM 48.2 °F - 32.0 °F 54% 30.27 in - NW 8.9 mph - N/A   Clear
4:30 PM 48.2 °F - 33.8 °F 58% 30.27 in - WNW 6.7 mph - N/A   Clear
5:00 PM 42.8 °F 38.7 °F 33.8 °F 70% 30.27 in - WNW 6.7 mph - N/A   Clear
5:30 PM 39.2 °F 36.0 °F 32.0 °F 75% 30.27 in - WSW 4.5 mph - N/A   Clear
6:00 PM 37.4 °F 33.9 °F 32.0 °F 81% 30.27 in - SSW 4.5 mph - N/A   Clear
6:30 PM 39.2 °F 34.4 °F 33.8 °F 81% 30.27 in - NW 6.7 mph - N/A   Clear
7:00 PM 37.4 °F 33.9 °F 35.6 °F 93% 30.27 in - NNW 4.5 mph - N/A   Clear
7:30 PM 37.4 °F 33.9 °F 35.6 °F 93% 30.27 in 3.7 mi NNW 4.5 mph - N/A   Scattered Clouds
8:00 PM 35.6 °F - 33.8 °F 93% 30.27 in - Variable 2.2 mph - N/A   Mostly Cloudy
8:30 PM 33.8 °F - 33.8 °F 100% 30.27 in - Variable 2.2 mph - N/A   Mostly Cloudy
9:00 PM 33.8 °F 29.7 °F 32.0 °F 93% 30.27 in - SW 4.5 mph - N/A   Scattered Clouds
9:30 PM 32.0 °F 27.6 °F 30.2 °F 93% 30.27 in - SSE 4.5 mph - N/A   Scattered Clouds
10:00 PM 32.0 °F 25.7 °F 30.2 °F 93% 30.24 in - SSE 6.7 mph - N/A   Scattered Clouds
10:30 PM 33.8 °F 29.7 °F 32.0 °F 93% 30.24 in - South 4.5 mph - N/A   Mostly Cloudy
11:00 PM 33.8 °F - 32.0 °F 93% 30.24 in - Variable 2.2 mph - N/A   Mostly Cloudy
11:30 PM 33.8 °F - 32.0 °F 93% 30.24 in 2.2 mi Calm Calm - N/A   Mostly Cloudy